www.pogodaiklimat.ru

ПОГОДА в Черри Пойнте, NC

  • Прогноз погоды в Черри Пойнте
  • Монитор погоды в Черри Пойнте
  • Климат в Черри Пойнте

АРХИВ ПОГОДЫ в Черри Пойнте

Время (UTC), дата Ветер
(напр.,м/с)
 
Видим.   Явления Облачность Т
(С)
Тd
(С)
f
(%)
Тe
(С)
Тes
(С)
Комфортность

P
(гПа)

Po
(гПа)
Тmin
(С)
Tmax
(С)
R
(мм)
SD
(см)
17:54 20.05 Ю  16 км    ясно  +30.6  +18.9  50  +36  +41  очень
душно 
1015.0  1014.5         
18:54 20.05 Ю  16 км    2/2 1200 м
[верхняя] 
+29.4  +18.3  51  +34  +36  очень
душно 
1014.5  1013.8         
19:54 20.05 Ю  16 км    2/2 1800 м
[верхняя] 
+29.4  +18.9  53  +35  +37  очень
душно 
1014.1  1013.5         
20:54 20.05 Ю  16 км    2/0 7500 м
[верхняя] 
+28.3  +18.3  55  +33  +36  очень
душно 
1014.0  1013.1         
21:54 20.05 Ю  8
{10} 
16 км    ясно  +26.7  +18.9  62  +32  +32  очень
душно 
1013.8  1013.1         
22:54 20.05 Ю  4
{11} 
16 км    ясно  +25.0  +18.9  69  +30  +31  душно  1013.9  1013.1  +25.0  +30.6     
23:54 20.05 Ю  16 км    ясно  +24.4  +19.4  74  +30  +30  очень
душно 
1014.0  1013.1         
00:54 21.05 ЮЗ  16 км    ясно  +24.4  +20.0  76  +30  +30  очень
душно 
1014.6  1013.8         
01:54 21.05 ЮЗ  16 км    ясно  +23.9  +20.0  79  +29  +29  душно  1015.0  1014.5         
02:54 21.05 ЮЗ  16 км    ясно  +23.9  +20.0  79  +29  +29  душно  1015.0  1014.2         
03:10 21.05 ЮЗ  16 км    8/8 600 м  +23.9  +20.0  79  +29  +29  душно    1014.2         
03:47 21.05 ЮЗ  16 км    5/5 510 м  +23.9  +20.6  82  +30  +30  очень
душно 
  1013.8         
03:54 21.05 ЮЗ  16 км    2/2 660 м  +23.3  +20.6  85  +31  +31  очень
душно 
1014.4  1013.8         
04:54 21.05 Ю  16 км    5/0 2550 м
[средняя] 
+22.8  +20.0  84  +29  +29  очень
душно 
1013.6  1012.8  +22.8  +25.0     
05:54 21.05 ЮЗ  16 км    ясно  +22.8  +20.0  84  +29  +29  очень
душно 
1013.2  1012.5         
06:54 21.05 ЮЗ  16 км    10/0 3000 м
[средняя] 
+22.8  +20.6  87  +30  +30  очень
душно 
1013.2  1012.5         
07:54 21.05 ЮЗ  16 км    10/8 1950 м
[средняя] 
+23.3  +20.6  85  +31  +31  очень
душно 
1013.2  1012.5         
08:54 21.05 ЮЗ  16 км    10/5 1800 м
[средняя] 
+23.3  +20.6  85  +31  +31  очень
душно 
1013.5  1012.8         
09:54 21.05 ЮЗ  16 км  слабый дождь  8/8 1170 м
[средняя] 
+23.3  +21.1  87  +31  +31  очень
душно 
1013.9  1013.1         
10:54 21.05 З  16 км    8/8 750 м  +25.0  +21.1  79  +32  +32  очень
душно 
1014.4  1013.8  +22.8  +25.0     
11:06 21.05 З  16 км    8/8 390 м  +25.0  +21.1  79  +32  +32  очень
душно 
  1013.8         
11:35 21.05 З  16 км    8/8 480 м  +25.6  +20.6  74  +32  +32  очень
душно 
  1013.8         
11:52 21.05 З  16 км    5/5 420 м  +27.0  +21.0  70  +34  +35  очень
душно 
  1013.8         
11:54 21.05 З  16 км    5/5 420 м  +26.1  +20.6  72  +33  +33  очень
душно 
1014.5  1013.8         
12:20 21.05 СЗ  16 км    8/8 600 м  +26.7  +20.0  67  +33  +34  очень
душно 
  1013.8         
12:31 21.05 СЗ  16 км    5/5 660 м  +27.8  +19.4  60  +33  +36  очень
душно 
  1013.8         
12:54 21.05 СЗ  16 км    ясно  +28.3  +18.9  57  +34  +38  очень
душно 
1014.4  1013.8         
13:54 21.05 С  16 км    ясно  +29.4  +17.8  50  +34  +41  очень
душно 
1014.7  1014.2         
14:54 21.05 СВ  16 км    2/2 1500 м  +31.1  +17.8  45  +35  +46  очень
душно 
1014.5  1013.8         
15:54 21.05 СВ  16 км    ясно  +32.2  +16.7  39  +35  +53  опасность
солнечного
удара 
1014.2  1013.5         
16:54 21.05 С  16 км    ясно  +32.8  +16.1  37  +36  +46  очень
душно 
1014.1  1013.5  +25.0  +33.3     
17:54 21.05 СВ  16 км    ясно  +30.6  +18.9  50  +36  +38  очень
душно 
1013.8  1013.1         
18:54 21.05 СВ  16 км    ясно  +30.0  +18.3  50  +35  +39  очень
душно 
1013.5  1012.8         
19:54 21.05 ЮВ  16 км    2/2 1470 м  +28.3  +17.8  53  +33  +36  очень
душно 
1013.7  1013.1         
20:54 21.05 В  16 км    ясно  +27.8  +16.7  51  +31  +34  душно  1014.2  1013.5         
21:54 21.05 В  16 км    ясно  +26.7  +16.1  52  +30  +31  душно  1014.8  1014.2         
22:54 21.05 В  16 км    2/2 1020 м  +24.4  +15.0  56  +27  +28  жарко  1015.9  1015.2  +24.4  +32.8     
23:54 21.05 В  16 км    5/5 1110 м  +23.3  +15.0  60  +27  +27  душно  1016.7  1016.2         
00:54 22.05 В  16 км    8/8 1200 м  +22.8  +15.6  64  +27  +27  душно  1017.8  1017.2         
01:54 22.05 В  16 км    10/10 1200 м  +22.2  +15.6  66  +26  +26  душно  1018.7  1018.2         
02:54 22.05 В  16 км    2/2 1260 м  +21.7  +15.6  68  +25  +25  комфорт  1019.1  1018.6         
03:54 22.05 В  16 км    2/2 1200 м  +21.7  +15.0  66  +25  +25  комфорт  1019.2  1018.6         
04:54 22.05 СВ  16 км    8/8 1260 м  +21.1  +15.6  71  +24  +24  комфорт  1019.3  1018.6  +21.1  +24.4     
05:54 22.05 СВ  16 км    ясно  +21.1  +12.8  59  +23  +23  комфорт  1019.4  1018.9         
06:54 22.05 СВ  16 км    ясно  +20.6  +11.7  57  +23  +23  комфорт  1019.7  1018.9         
07:54 22.05 СВ  16 км    ясно  +20.0  +11.1  57  +21  +21  комфорт  1020.1  1019.6         
08:54 22.05 СВ  16 км    2/2 1140 м  +19.4  +11.7  61  +20  +20    1020.7  1019.9         
09:54 22.05 СВ  16 км    10/10 1200 м  +20.6  +12.2  59  +22  +22  комфорт  1021.7  1020.9         

 

Местоположение метеостанции Marine Corps Air Station: широта 34.8972 долгота -76.8814 высота над уровнем моря 8 м.

В архиве по умолчанию представлена погода в Черри Пойнте за последние 1-2 суток. Обновление информации о фактической погоде в базе происходит ежечасно! Архивные данные за месяц целиком и за предыдущие месяцы Вы можете получить, выбрав интересующий диапазон дат из раскрывающегося списка и нажав кнопку "Ввод!".

Внимание! Архив погоды МЕТАР в базе сайта хранится не более 60 дней. Нет смысла пытаться выбрать более раннюю дату.

Внимание! Время в таблицах - всемирное. Для получения местного времени необходимо прибавить поправку, которая в Черри Пойнте равна -5 ч.

Ветер - указаны скорость ветра в м/с и направление, откуда дует ветер: С - северный, СВ - северо-восточный, В - восточный, ЮВ - юго-восточный, Ю - южный, ЮЗ - юго-западный, З - западный, СЗ - северо-западный.
Видимость - горизонтальная дальность видимости в метрах или километрах. При видимости от 1 до 10 км при отсутствии осадков обычно наблюдается дымка, при ухудшении видимости до 1 км и менее - туман. В сухую погоду видимость может ухудшаться дымом, пылью или мглою.
Атмосферные явления - указаны явления, наблюдавшиеся в указанный момент времени.
Облачность - указаны через наклонную черту верхняя и нижняя облачность в баллах и высота нижней границы облаков в метрах. Внимание: облачность, как и прочие метеорологические величины в США измеряются автоматическими метеостанциями. Указанные значения в баллах носят условный характер и показывают процент времени, в течение которого, в среднем, лазерный луч высотомера отражался от облаков обратно.
T - Температура воздуха - температура, измеренная на высоте 2 м над землей.
Td - Температура точки росы - температура, при понижении до которой содержащийся в воздухе водяной пар достигнет насыщения.
f - Относительная влажность воздуха - влажноcть воздуха, измеренная на высоте 2 м над землей.
Te - Эффективная температура - температура, которую ощущает одетый по сезону человек в тени. Характеристика душности погоды. При расчете учитывается влияние влажности воздуха и скорости ветра на теплоощущения человека.
Tes - Эффективная температура на солнце - температура, которую ощущает человек, с поправкой на солнечный нагрев. Характеристика знойности погоды. Зависит от высоты солнца над горизонтом, облачности и скорости ветра. Ночью, в пасмурную погоду, а также при ветре 12 м/с и более поправка равна нулю.
P - Атмосферное давление - приведенное к уровню моря атмосферное давление.
Po - Атмосферное давление - измеренное на уровне метеостанции атмосферное давление.
Tmin - Минимальная температура - минимум температуры воздуха на высоте 2 м над землей.
Tmax - Максимальная температура - максимум температуры воздуха на высоте 2 м над землей.
R - Количество осадков - Количество выпавших осадков за 3 или 6 часов, мм.
SD - Снежный покров - Высота снежного покрова, см.